Location: Unspecified
(35.6961°N, 0.0000°E)
Time: 01:05:02
(UTC+00:00)

Courier 1B Rocket - Pass Details

Date: 23 May 2019
Orbit: 920 x 1202 km, 28.2° (Epoch: 16 June)

Event Time Altitude Azimuth Distance (km) Brightness Sun altitude
Rises 21:01:08 0° 268° (W) 4,069 8.9 -20.0°
Reaches altitude 10° 21:04:28 10° 257° (WSW) 3,078 8.0 -20.4°
Maximum altitude 21:10:39 27° 202° (SSW) 2,005 6.4 -21.3°
Enters shadow 21:12:16 25° 182° (S) 2,076 6.3 -21.5°
